Weather History for Needles, CA

Change the Weather History Date:

Tuesday, May 29, 2012

  Actual Average Record
Temperature  
Mean Temperature 86 °F -  
Max Temperature 102 °F 97 °F 113 °F (1983)
Min Temperature 70 °F 71 °F 39 °F (2000)
Cooling Degree Days 21    
Growing Degree Days 36 (Base 50)    
Moisture  
Dew Point 20 °F    
Average Humidity 9    
Maximum Humidity 13    
Minimum Humidity 4    
Precipitation  
Precipitation 0.00 in - - ()
Sea Level Pressure  
Sea Level Pressure 29.75 in    
Wind  
Wind Speed 5 mph (WSW)    
Max Wind Speed 13 mph    
Max Gust Speed 21 mph    
Visibility 10 miles    
Events      
Averages and records for this station are not official NWS values.
T = Trace of Precipitation, MM = Missing Value Source: NWS Daily Summary

Daily Weather History Graph

Daily Weather History Graph

Search for Another Location

Airport:

Trip Planner

Search our weather history database for the weather conditions in past years. The results will help you decide how hot, cold, wet, or windy it might be!

Date:

Astronomy

May. 29, 2012 Rise Set
Actual Time 5:27 AM PDT 7:45 PM PDT
Civil Twilight 4:58 AM PDT 8:14 PM PDT
Nautical Twilight 4:22 AM PDT 8:49 PM PDT
Astronomical Twilight 3:44 AM PDT 9:28 PM PDT
Moon 1:34 PM PDT (5/29) 1:07 AM PDT (5/29)
Length of Visible Light 15h 15m
Length of Day
14h 17m
First Quarter, 60% of the Moon is Illuminated
May 29
First Quarter
Jun 4
Full
Jun 11
Last Quarter
Jun 19
New
Jun 26
First Quarter

Hourly Weather History & Observations

Time (PDT) Temp. Dew Point Humidity Pressure Visibility Wind Dir Wind Speed Gust Speed Precip Events Conditions
12:56 AM 80.1 °F 18.0 °F 10% 29.73 in 10.0 mi Calm Calm - N/A   Clear
1:56 AM 77.0 °F 18.0 °F 11% 29.74 in 10.0 mi Calm Calm - N/A   Clear
3:56 AM 70.0 °F 17.1 °F 13% 29.75 in 10.0 mi NNW 4.6 mph - N/A   Clear
4:56 AM 72.0 °F 17.1 °F 12% 29.76 in 10.0 mi West 5.8 mph - N/A   Clear
5:56 AM 70.0 °F 17.1 °F 13% 29.78 in 10.0 mi West 4.6 mph - N/A   Clear
6:56 AM 75.0 °F 19.0 °F 12% 29.80 in 10.0 mi Calm Calm - N/A   Clear
7:56 AM 80.1 °F 19.0 °F 10% 29.81 in 10.0 mi Calm Calm - N/A   Clear
8:56 AM 82.9 °F 21.9 °F 11% 29.81 in 10.0 mi Calm Calm - N/A   Clear
9:56 AM 89.1 °F 24.1 °F 9% 29.81 in 10.0 mi Variable 4.6 mph - N/A   Clear
10:56 AM 93.0 °F 28.0 °F 10% 29.80 in 10.0 mi ESE 4.6 mph - N/A   Clear
11:56 AM 96.1 °F 26.1 °F 8% 29.78 in 10.0 mi ESE 12.7 mph 17.3 mph N/A   Clear
12:56 PM 98.1 °F 23.0 °F 7% 29.77 in 10.0 mi SW 9.2 mph 19.6 mph N/A   Clear
1:56 PM 99.0 °F 24.1 °F 7% 29.75 in 10.0 mi WSW 12.7 mph 18.4 mph N/A   Clear
2:56 PM 102.0 °F 25.0 °F 7% 29.73 in 10.0 mi SW 12.7 mph 18.4 mph N/A   Clear
3:56 PM 100.9 °F 15.1 °F 4% 29.72 in 10.0 mi West 11.5 mph 20.7 mph N/A   Clear
4:56 PM 99.0 °F 12.0 °F 4% 29.71 in 10.0 mi WSW 4.6 mph 19.6 mph N/A   Clear
5:56 PM 99.0 °F 10.9 °F 4% 29.70 in 10.0 mi WSW 9.2 mph - N/A   Clear
6:56 PM 98.1 °F 16.0 °F 5% 29.69 in 10.0 mi WSW 6.9 mph - N/A   Clear
7:56 PM 95.0 °F 17.1 °F 6% 29.69 in 10.0 mi West 6.9 mph - N/A   Clear
8:56 PM 91.9 °F 18.0 °F 7% 29.70 in 10.0 mi WSW 10.4 mph - N/A   Clear
9:56 PM 89.1 °F 25.0 °F 10% 29.73 in 10.0 mi West 9.2 mph - N/A   Clear
10:56 PM 89.1 °F 26.1 °F 10% 29.72 in 10.0 mi SW 10.4 mph - N/A   Clear
11:56 PM 89.1 °F 24.1 °F 9% 29.71 in 10.0 mi SW 9.2 mph - N/A   Clear